DW6016 Weather Reports


time (UTC)temp
C
wind
direction
speed
KPH
gust
KPH
rain 1hr
cm
rain 24hr
cm
rain mn
cm
humidity
%
barometer
mb
20240614112647 6 297 0.0 0.0 0.00 0.00 0.00 95 1023.4
20240614112147 6 297 0.0 0.0 0.00 0.00 0.00 94 1023.2
20240614111645 6 297 0.0 0.0 0.00 0.00 0.00 94 1023.1
20240614111144 6 297 0.0 0.0 0.00 0.00 0.00 93 1023.3
20240614110643 6 297 0.0 0.0 0.00 0.00 0.00 93 1023.2
20240614110141 7 297 0.0 0.0 0.00 0.00 0.00 93 1023.0
20240614105636 7 297 0.0 0.0 0.00 0.00 0.00 94 1023.3
20240614105135 6 297 0.0 0.0 0.00 0.00 0.00 93 1023.3
20240614104635 6 297 0.0 0.0 0.00 0.00 0.00 93 1023.3
20240614104135 7 297 0.0 0.0 0.00 0.00 0.00 92 1023.3
20240614103632 7 297 0.0 0.0 0.00 0.00 0.00 92 1023.2
20240614103130 7 297 0.0 0.0 0.00 0.00 0.00 91 1023.4
20240614102628 7 297 0.0 0.0 0.00 0.00 0.00 91 1023.3
20240614102127 7 297 0.0 0.0 0.00 0.00 0.00 90 1023.1
20240614101623 7 297 0.0 0.0 0.00 0.00 0.00 90 1023.0
20240614101122 7 297 0.0 0.0 0.00 0.00 0.00 89 1023.2
20240614100622 7 297 0.0 0.0 0.00 0.00 0.00 89 1023.0
20240614100121 7 297 0.0 0.0 0.00 0.00 0.00 89 1023.1
20240614095620 7 297 0.0 0.0 0.00 0.00 0.00 89 1023.1
20240614095118 7 297 0.0 0.0 0.00 0.00 0.00 88 1023.2
20240614094618 7 297 0.0 0.0 0.00 0.00 0.00 87 1023.0
20240614094116 8 297 0.0 0.0 0.00 0.00 0.00 87 1023.1
20240614093614 7 297 0.0 0.0 0.00 0.00 0.00 88 1023.1
20240614093112 7 297 0.0 0.0 0.00 0.00 0.00 86 1023.2
20240614092610 8 297 0.0 0.0 0.00 0.00 0.00 86 1023.1
20240614092110 8 297 0.0 0.0 0.00 0.00 0.00 86 1022.9
20240614091609 8 297 0.0 0.0 0.00 0.00 0.00 85 1023.2
20240614091108 8 297 0.0 0.0 0.00 0.00 0.00 85 1023.0
20240614090608 8 297 0.0 0.0 0.00 0.00 0.00 83 1023.1
20240614090107 8 297 0.0 0.0 0.00 0.00 0.00 82 1022.9
20240614085606 8 297 0.0 0.0 0.00 0.00 0.00 82 1022.8
20240614085104 8 297 0.0 0.0 0.00 0.00 0.00 81 1022.9
20240614084602 9 297 0.0 0.0 0.00 0.00 0.00 79 1022.8
20240614084102 10 297 0.0 0.0 0.00 0.00 0.00 78 1022.9
20240614083601 10 297 0.0 0.0 0.00 0.00 0.00 77 1022.7
20240614083100 10 297 0.0 0.0 0.00 0.00 0.00 75 1022.6
20240614082600 10 298 0.0 0.0 0.00 0.00 0.00 74 1022.7
20240614082059 10 298 0.0 0.0 0.00 0.00 0.00 73 1022.5
20240614081557 10 307 0.0 0.0 0.00 0.00 0.00 73 1022.9
20240614081055 11 304 0.0 0.0 0.00 0.00 0.00 72 1022.7
20240614080554 11 307 0.0 0.0 0.00 0.00 0.00 71 1022.7
20240614080053 11 301 0.0 0.0 0.00 0.00 0.00 69 1023.0
20240614075551 11 337 1.6 1.6 0.00 0.00 0.00 69 1022.5
20240614075050 11 337 0.0 1.6 0.00 0.00 0.00 69 1022.7
20240614074548 11 299 0.0 0.0 0.00 0.00 0.00 68 1022.4
20240614074047 11 309 0.0 1.6 0.00 0.00 0.00 67 1022.5
20240614073545 12 303 0.0 0.0 0.00 0.00 0.00 66 1022.4
20240614073044 12 291 0.0 1.6 0.00 0.00 0.00 65 1022.5
20240614072543 11 306 0.0 1.6 0.00 0.00 0.00 65 1022.4
20240614072042 11 318 0.0 0.0 0.00 0.00 0.00 65 1022.5
20240614071538 11 305 0.0 0.0 0.00 0.00 0.00 65 1022.3
20240614071038 12 309 1.6 1.6 0.00 0.00 0.00 64 1022.3
20240614070536 11 302 0.0 0.0 0.00 0.00 0.00 63 1022.2
20240614070036 11 304 0.0 0.0 0.00 0.00 0.00 63 1022.3
20240614065535 11 304 0.0 1.6 0.00 0.00 0.00 63 1022.2
20240614065033 11 304 0.0 0.0 0.00 0.00 0.00 63 1022.0
20240614064532 11 304 0.0 0.0 0.00 0.00 0.00 61 1021.9
20240614064031 11 304 1.6 1.6 0.00 0.00 0.00 61 1021.8
20240614063530 11 320 0.0 1.6 0.00 0.00 0.00 60 1021.5
20240614063029 11 303 0.0 0.0 0.00 0.00 0.00 59 1021.5
20240614062529 11 305 0.0 0.0 0.00 0.00 0.00 60 1021.4
20240614062029 11 303 0.0 0.0 0.00 0.00 0.00 59 1021.5
20240614061526 11 303 0.0 0.0 0.00 0.00 0.00 58 1021.3
20240614061024 11 299 0.0 0.0 0.00 0.00 0.00 58 1021.2
20240614060523 11 305 0.0 0.0 0.00 0.00 0.00 56 1021.2
20240614060021 12 305 0.0 0.0 0.00 0.00 0.00 55 1021.0
20240614055519 12 305 0.0 0.0 0.00 0.00 0.00 53 1021.0
20240614055018 13 305 0.0 0.0 0.00 0.00 0.00 52 1021.0
20240614054517 13 305 0.0 0.0 0.00 0.00 0.00 50 1021.1
20240614054017 13 305 0.0 0.0 0.00 0.00 0.00 50 1020.9
20240614053517 13 305 0.0 0.0 0.00 0.00 0.00 49 1020.8
20240614053014 13 300 0.0 0.0 0.00 0.00 0.00 56 1020.9
20240614052513 13 300 0.0 0.0 0.00 0.00 0.00 58 1020.7
20240614052011 13 300 0.0 0.0 0.00 0.00 0.00 59 1020.6
20240614051507 12 300 0.0 0.0 0.00 0.00 0.00 58 1020.5
20240614051007 13 300 0.0 0.0 0.00 0.00 0.00 61 1020.6
20240614050506 13 300 0.0 0.0 0.00 0.00 0.00 62 1020.7
20240614050004 13 300 0.0 0.0 0.00 0.00 0.00 60 1020.6
20240614045502 13 300 0.0 0.0 0.00 0.00 0.00 59 1020.4
20240614045001 13 300 0.0 0.0 0.00 0.00 0.00 58 1020.2
20240614044457 13 300 0.0 0.0 0.00 0.00 0.00 58 1020.2
20240614043955 14 300 0.0 0.0 0.00 0.00 0.00 57 1020.2
20240614043453 14 300 0.0 0.0 0.00 0.00 0.00 55 1020.0
20240614042953 15 300 0.0 0.0 0.00 0.00 0.00 54 1020.1
20240614042452 15 300 0.0 0.0 0.00 0.00 0.00 54 1019.9
20240614041950 15 309 0.0 0.0 0.00 0.00 0.00 52 1019.9
20240614041447 15 311 0.0 0.0 0.00 0.00 0.00 51 1019.8
20240614040945 15 302 0.0 0.0 0.00 0.00 0.00 50 1019.9
20240614040445 16 302 0.0 0.0 0.00 0.00 0.00 49 1019.8
20240614035944 16 298 0.0 0.0 0.00 0.00 0.00 49 1020.0
20240614035444 16 304 0.0 0.0 0.00 0.00 0.00 48 1019.8
20240614034943 16 335 1.6 1.6 0.00 0.00 0.00 48 1019.7
20240614034442 16 304 0.0 1.6 0.00 0.00 0.00 47 1019.8
20240614033941 17 306 0.0 1.6 0.00 0.00 0.00 48 1019.8
20240614033440 17 313 0.0 1.6 0.00 0.00 0.00 46 1020.0
20240614032939 17 295 1.6 3.2 0.00 0.00 0.00 45 1019.7
20240614032437 17 279 0.0 1.6 0.00 0.00 0.00 46 1019.6
20240614031936 17 140 3.2 4.8 0.00 0.00 0.00 45 1019.3
20240614031435 18 309 1.6 1.6 0.00 0.00 0.00 46 1019.6
20240614030934 18 286 1.6 3.2 0.00 0.00 0.00 44 1019.6
20240614030432 18 169 3.2 3.2 0.00 0.00 0.00 49 1019.3
20240614025930 18 309 3.2 3.2 0.00 0.00 0.00 52 1019.4
20240614025429 18 322 3.2 3.2 0.00 0.00 0.00 52 1019.4
20240614024927 18 301 1.6 1.6 0.00 0.00 0.00 55 1019.4
20240614024426 18 306 1.6 1.6 0.00 0.00 0.00 55 1019.5
20240614023925 18 296 1.6 1.6 0.00 0.00 0.00 55 1019.3
20240614023424 18 299 1.6 1.6 0.00 0.00 0.00 54 1019.3
20240614022922 18 155 3.2 4.8 0.00 0.00 0.00 54 1019.3
20240614022421 18 300 0.0 0.0 0.00 0.00 0.00 56 1019.3
20240614021920 18 337 3.2 4.8 0.00 0.00 0.00 54 1019.2
20240614021419 18 271 3.2 3.2 0.00 0.00 0.00 53 1019.0
20240614020917 18 305 1.6 3.2 0.00 0.00 0.00 54 1019.0
20240614020415 19 287 1.6 3.2 0.00 0.00 0.00 55 1018.9
20240614015913 19 304 0.0 1.6 0.00 0.00 0.00 55 1018.9
20240614015412 19 301 0.0 1.6 0.00 0.00 0.00 55 1018.9
20240614014911 19 60 1.6 3.2 0.00 0.00 0.00 55 1018.6
20240614014408 20 293 1.6 1.6 0.00 0.00 0.00 55 1018.5
20240614013906 20 307 1.6 1.6 0.00 0.00 0.00 54 1018.2
20240614013405 20 56 3.2 4.8 0.00 0.00 0.00 54 1018.3
20240614012904 20 314 1.6 1.6 0.00 0.00 0.00 54 1018.5
20240614012403 20 212 3.2 4.8 0.00 0.00 0.00 53 1018.1
20240614011902 20 297 3.2 4.8 0.00 0.00 0.00 53 1018.3
20240614011400 20 277 0.0 1.6 0.00 0.00 0.00 53 1018.0
20240614010859 20 296 1.6 1.6 0.00 0.00 0.00 52 1018.1
20240614010355 20 69 1.6 4.8 0.00 0.00 0.00 51 1018.1
20240614005852 20 282 4.8 8.0 0.00 0.00 0.00 49 1017.9
20240614005352 20 303 1.6 3.2 0.00 0.00 0.00 50 1018.0
20240614004851 20 294 0.0 0.0 0.00 0.00 0.00 49 1017.7
20240614004349 21 285 3.2 3.2 0.00 0.00 0.00 47 1018.0
20240614003848 21 319 0.0 1.6 0.00 0.00 0.00 47 1017.9
20240614003347 21 262 1.6 1.6 0.00 0.00 0.00 49 1017.7
20240614002846 21 336 4.8 4.8 0.00 0.00 0.00 48 1017.8
20240614002344 21 166 4.8 4.8 0.00 0.00 0.00 50 1017.9
20240614001841 21 313 4.8 8.0 0.00 0.00 0.00 49 1017.7
20240614001340 21 95 4.8 8.0 0.00 0.00 0.00 47 1017.5
20240614000839 21 332 1.6 3.2 0.00 0.00 0.00 48 1017.6
20240614000335 21 296 3.2 3.2 0.00 0.00 0.00 47 1017.6
20240613235835 21 274 1.6 1.6 0.00 0.00 0.00 47 1017.5
20240613235333 21 290 3.2 3.2 0.00 0.00 0.00 46 1017.5
20240613234832 21 304 1.6 1.6 0.00 0.00 0.00 46 1017.3
20240613234332 21 281 3.2 4.8 0.00 0.00 0.00 48 1017.3
20240613233830 22 306 1.6 1.6 0.00 0.00 0.00 44 1017.5
20240613233326 22 283 1.6 4.8 0.00 0.00 0.00 44 1017.4
20240613232825 22 254 1.6 3.2 0.00 0.00 0.00 44 1017.3
20240613232324 22 296 1.6 3.2 0.00 0.00 0.00 43 1017.4
20240613231823 22 332 3.2 4.8 0.00 0.00 0.00 42 1017.5
20240613231319 22 273 3.2 4.8 0.00 0.00 0.00 42 1017.4
20240613230819 22 248 1.6 1.6 0.00 0.00 0.00 45 1017.3
20240613230317 22 290 1.6 1.6 0.00 0.00 0.00 42 1017.3
20240613225812 22 215 1.6 3.2 0.00 0.00 0.00 43 1017.3
20240613225308 22 319 1.6 1.6 0.00 0.00 0.00 43 1017.2
20240613224803 22 307 3.2 4.8 0.00 0.00 0.00 42 1017.6
20240613224254 22 198 1.6 1.6 0.00 0.00 0.00 42 1017.5
20240613223753 22 306 4.8 4.8 0.00 0.00 0.00 43 1017.3
20240613223252 22 305 1.6 1.6 0.00 0.00 0.00 43 1017.5
20240613222751 22 283 1.6 1.6 0.00 0.00 0.00 41 1017.6
20240613222250 22 305 3.2 3.2 0.00 0.00 0.00 44 1017.5
20240613221749 22 311 0.0 1.6 0.00 0.00 0.00 44 1017.5
20240613221248 22 277 3.2 4.8 0.00 0.00 0.00 43 1017.7
20240613220746 22 292 1.6 3.2 0.00 0.00 0.00 44 1017.6
20240613220244 22 292 3.2 3.2 0.00 0.00 0.00 43 1017.7
20240613215743 22 182 1.6 3.2 0.00 0.00 0.00 44 1017.6
20240613215241 22 290 4.8 8.0 0.00 0.00 0.00 43 1017.8
20240613214740 22 282 4.8 9.7 0.00 0.00 0.00 47 1018.0
20240613214239 22 306 3.2 3.2 0.00 0.00 0.00 42 1017.8
20240613213737 22 17 3.2 3.2 0.00 0.00 0.00 46 1017.9
20240613213236 21 279 1.6 3.2 0.00 0.00 0.00 47 1017.9
20240613212736 21 304 3.2 3.2 0.00 0.00 0.00 47 1018.1
20240613212235 21 305 3.2 3.2 0.00 0.00 0.00 48 1018.0
20240613211735 21 173 4.8 4.8 0.00 0.00 0.00 47 1018.2
20240613211232 21 294 3.2 3.2 0.00 0.00 0.00 46 1018.3
20240613210731 22 278 4.8 8.0 0.00 0.00 0.00 47 1018.3
20240613210231 21 305 0.0 1.6 0.00 0.00 0.00 46 1018.2
20240613205728 21 5 1.6 3.2 0.00 0.00 0.00 47 1018.2
20240613205226 21 278 4.8 4.8 0.00 0.00 0.00 47 1018.5
20240613204724 21 305 4.8 4.8 0.00 0.00 0.00 46 1018.4
20240613204223 21 156 4.8 4.8 0.00 0.00 0.00 47 1018.4
20240613203722 21 317 1.6 1.6 0.00 0.00 0.00 45 1018.5
20240613203220 21 300 1.6 3.2 0.00 0.00 0.00 47 1018.3
20240613202718 21 296 1.6 3.2 0.00 0.00 0.00 49 1018.6
20240613202217 21 326 4.8 4.8 0.00 0.00 0.00 48 1018.7
20240613201716 21 192 6.4 8.0 0.00 0.00 0.00 47 1018.7
20240613201216 21 315 1.6 1.6 0.00 0.00 0.00 48 1018.6
20240613200714 21 236 1.6 1.6 0.00 0.00 0.00 50 1018.4
20240613200215 21 293 1.6 3.2 0.00 0.00 0.00 48 1018.7
20240613195713 21 183 1.6 1.6 0.00 0.00 0.00 51 1018.7
20240613195211 21 205 4.8 4.8 0.00 0.00 0.00 50 1018.7
20240613194709 21 80 6.4 8.0 0.00 0.00 0.00 48 1019.1
20240613194208 20 62 1.6 3.2 0.00 0.00 0.00 48 1018.9
20240613193707 20 106 4.8 4.8 0.00 0.00 0.00 49 1018.8
20240613193207 20 212 1.6 3.2 0.00 0.00 0.00 51 1018.9
20240613192705 20 176 0.0 1.6 0.00 0.00 0.00 53 1019.1
20240613192204 20 267 1.6 1.6 0.00 0.00 0.00 52 1018.8
20240613191703 20 287 0.0 1.6 0.00 0.00 0.00 54 1019.1
20240613191201 20 316 0.0 1.6 0.00 0.00 0.00 55 1019.1
20240613190701 20 330 1.6 3.2 0.00 0.00 0.00 52 1019.0
20240613190159 19 276 3.2 3.2 0.00 0.00 0.00 53 1019.0
20240613185658 20 275 8.0 9.7 0.00 0.00 0.00 51 1018.9
20240613185157 19 292 0.0 0.0 0.00 0.00 0.00 54 1018.9
20240613184657 19 280 3.2 3.2 0.00 0.00 0.00 52 1019.1
20240613184155 18 290 1.6 3.2 0.00 0.00 0.00 53 1018.9
20240613183653 18 314 0.0 1.6 0.00 0.00 0.00 58 1019.0
20240613183153 18 297 1.6 1.6 0.00 0.00 0.00 56 1019.1
20240613182651 18 310 0.0 1.6 0.00 0.00 0.00 57 1019.2
20240613182150 17 305 3.2 4.8 0.00 0.00 0.00 56 1019.2
20240613181650 17 356 0.0 1.6 0.00 0.00 0.00 62 1019.1
20240613181150 17 303 3.2 3.2 0.00 0.00 0.00 59 1019.3
20240613180647 17 308 1.6 1.6 0.00 0.00 0.00 58 1019.4
20240613180145 17 290 6.4 9.7 0.00 0.00 0.00 57 1019.2
20240613175643 17 277 8.0 11.3 0.00 0.00 0.00 56 1019.2
20240613175142 17 308 4.8 8.0 0.00 0.00 0.00 58 1019.2
20240613174641 18 301 6.4 8.0 0.00 0.00 0.00 56 1019.3
20240613174139 17 101 3.2 4.8 0.00 0.00 0.00 58 1019.3
20240613173639 18 294 0.0 1.6 0.00 0.00 0.00 58 1019.2
20240613173137 17 47 1.6 3.2 0.00 0.00 0.00 59 1019.4
20240613172636 16 301 3.2 4.8 0.00 0.00 0.00 61 1019.2
20240613172135 17 289 6.4 8.0 0.00 0.00 0.00 58 1019.5
20240613171633 17 306 4.8 4.8 0.00 0.00 0.00 59 1019.4
20240613171132 18 307 3.2 3.2 0.00 0.00 0.00 58 1019.5
20240613170631 17 291 1.6 1.6 0.00 0.00 0.00 60 1019.4
20240613170130 17 295 1.6 1.6 0.00 0.00 0.00 61 1019.5
20240613165628 17 297 0.0 1.6 0.00 0.00 0.00 61 1019.4
20240613165127 16 301 0.0 1.6 0.00 0.00 0.00 62 1019.7
20240613164626 17 306 0.0 0.0 0.00 0.00 0.00 62 1019.4
20240613164126 16 309 0.0 0.0 0.00 0.00 0.00 63 1019.4
20240613163622 16 318 3.2 3.2 0.00 0.00 0.00 64 1019.5
20240613163122 16 328 1.6 1.6 0.00 0.00 0.00 63 1019.6
20240613162615 16 307 1.6 1.6 0.00 0.00 0.00 65 1019.7
20240613162114 16 313 0.0 1.6 0.00 0.00 0.00 66 1019.8
20240613161614 15 305 1.6 3.2 0.00 0.00 0.00 66 1019.8
20240613161113 15 296 4.8 8.0 0.00 0.00 0.00 68 1019.8
20240613160612 13 313 3.2 3.2 0.00 0.00 0.00 70 1019.8
20240613160110 15 297 4.8 4.8 0.00 0.00 0.00 68 1019.9
20240613155609 15 324 0.0 1.6 0.00 0.00 0.00 67 1019.8
20240613155108 15 308 4.8 4.8 0.00 0.00 0.00 68 1019.8
20240613154607 14 291 1.6 1.6 0.00 0.00 0.00 68 1019.7
20240613154105 15 282 3.2 3.2 0.00 0.00 0.00 66 1019.6
20240613153604 15 309 0.0 1.6 0.00 0.00 0.00 66 1019.8
20240613153103 15 17 1.6 3.2 0.00 0.00 0.00 67 1019.8
20240613152601 14 297 1.6 3.2 0.00 0.00 0.00 68 1019.9
20240613152100 14 320 1.6 1.6 0.00 0.00 0.00 69 1019.7
20240613151559 13 328 0.0 0.0 0.00 0.00 0.00 70 1019.8
20240613151057 13 338 0.0 1.6 0.00 0.00 0.00 72 1019.8
20240613150557 13 305 4.8 4.8 0.00 0.00 0.00 70 1019.8
20240613150055 13 307 3.2 3.2 0.00 0.00 0.00 70 1019.9
20240613145554 14 315 0.0 0.0 0.00 0.00 0.00 71 1019.9
20240613145051 13 16 1.6 1.6 0.00 0.00 0.00 69 1019.9
20240613144551 13 334 0.0 1.6 0.00 0.00 0.00 71 1019.9
20240613144050 13 46 3.2 4.8 0.00 0.00 0.00 70 1020.2
20240613143549 13 304 1.6 3.2 0.00 0.00 0.00 72 1020.2
20240613143048 13 311 3.2 3.2 0.00 0.00 0.00 73 1020.0
20240613142547 13 358 1.6 1.6 0.00 0.00 0.00 70 1019.8
20240613142045 13 316 0.0 0.0 0.00 0.00 0.00 72 1019.8
20240613141543 13 314 1.6 1.6 0.00 0.00 0.00 73 1019.6
20240613141041 13 338 0.0 1.6 0.00 0.00 0.00 72 1019.7
20240613140540 12 326 0.0 0.0 0.00 0.00 0.00 74 1019.6
20240613140038 12 309 0.0 0.0 0.00 0.00 0.00 77 1019.6
20240613135537 12 9 0.0 0.0 0.00 0.00 0.00 77 1019.8
20240613135037 11 315 0.0 0.0 0.00 0.00 0.00 78 1019.9
20240613134535 11 326 0.0 0.0 0.00 0.00 0.00 81 1019.6
20240613134034 10 332 1.6 1.6 0.00 0.00 0.00 83 1019.6
20240613133531 10 322 1.6 1.6 0.00 0.00 0.00 85 1019.7
20240613133031 10 308 0.0 0.0 0.00 0.00 0.00 87 1019.6
20240613132530 9 303 0.0 0.0 0.00 0.00 0.00 90 1019.4
20240613132029 8 307 0.0 0.0 0.00 0.00 0.00 92 1019.6
20240613131526 8 313 0.0 0.0 0.00 0.00 0.00 93 1019.8
20240613131026 8 313 0.0 0.0 0.00 0.00 0.00 92 1019.5
20240613130525 8 313 0.0 0.0 0.00 0.00 0.00 91 1019.5
20240613130025 8 313 0.0 0.0 0.00 0.00 0.00 91 1019.7
20240613125522 8 313 0.0 0.0 0.00 0.00 0.00 90 1019.6
20240613125022 8 313 0.0 0.0 0.00 0.00 0.00 89 1019.4
20240613124520 8 313 0.0 0.0 0.00 0.00 0.00 88 1019.5
20240613124020 9 313 0.0 0.0 0.00 0.00 0.00 87 1019.5
20240613123519 9 313 0.0 0.0 0.00 0.00 0.00 86 1019.5
20240613123017 9 313 0.0 0.0 0.00 0.00 0.00 85 1019.6
20240613122515 10 290 0.0 0.0 0.00 0.00 0.00 84 1019.4
20240613122014 10 298 0.0 1.6 0.00 0.00 0.00 84 1019.5
20240613121512 10 304 0.0 0.0 0.00 0.00 0.00 84 1019.5
20240613121010 10 326 0.0 1.6 0.00 0.00 0.00 85 1019.7
20240613120509 10 314 0.0 0.0 0.00 0.00 0.00 85 1019.4
20240613120007 9 303 0.0 1.6 0.00 0.00 0.00 86 1019.4
20240613115504 9 303 0.0 0.0 0.00 0.00 0.00 87 1019.5
20240613115004 8 300 0.0 0.0 0.00 0.00 0.00 89 1019.4
20240613114503 8 313 0.0 0.0 0.00 0.00 0.00 90 1019.4
20240613114001 8 307 0.0 0.0 0.00 0.00 0.00 92 1019.7
20240613113500 8 307 0.0 0.0 0.00 0.00 0.00 92 1019.3